[Date Prev][Date Next][Thread Prev][Thread Next] - [Date Index][Thread Index][Author Index]
2 Line ISS Keps 3-9
- Subject: [sarex] 2 Line ISS Keps 3-9
- From: "Dave Larsen PhD" <doc@xxxxxxxxxxx>
- Date: Wed, 9 Mar 2005 04:02:35 -0800
ISS
1 25544U 98067A 05068.35884238 .00017453 00000-0 14299-3 0 9763
2 25544 51.6460 51.5885 0004033 172.4614 348.2885 15.70605817359983
----
Via the sarex mailing list at AMSAT.ORG courtesy of AMSAT-NA.
To unsubscribe, send "unsubscribe sarex" to Majordomo@amsat.org
AMSAT Home